Regional Weather Roundup
Issued by NWS

Home | Current Version | Previous Version | Graphics & Text | Print | Product List | Glossary On
Versions: 1 2 3 4 5 6 7 8 9 10 11 12 13 14 15 16 17 18 19 20 21 22 23 24 25 26 27 28 29 30 31 32 33 34 35 36 37 38 39 40 41 42 43 44 45 46 47 48 49 50
054
ASUS44 KMEG 031400
RWRTN
TENNESSEE HOURLY STATE WEATHER ROUNDUP
NATIONAL WEATHER SERVICE MEMPHIS TN
800 AM CST SAT DEC 03 2016

TNZ002-004-019-021-049-052-054-088>092-031500-
WEST TENNESSEE

CITY           SKY/WX    TMP DP  RH WIND       PRES   REMARKS
MEMPHIS INTL   CLOUDY    47  32  56 E12       30.27F
NWS MEMPHIS      N/A     45 N/A N/A MISG        N/A
JACKSON        CLOUDY    43  33  68 E8        30.31F
DYERSBURG      CLOUDY   N/A N/A N/A E6        30.31F
PARIS          SUNNY     36  30  80 NE9       30.34S WCI  29
$$

TNZ008-025-027-028-033-062-065-066-031500-
NORTH MIDDLE TENNESSEE

CITY           SKY/WX    TMP DP  RH WIND       PRES   REMARKS
NASHVILLE      CLOUDY    41  33  73 E5        30.37R
CLARKSVILLE    PTSUNNY   37  31  78 NE6       30.37S WCI  32
SMYRNA         MOSUNNY   40  33  76 NE5       30.37R
CROSSVILLE     MOSUNNY   34  28  79 NE5       30.32R WCI  30
$$

TNZ061-075-076-078-094-096-097-031500-
SOUTH MIDDLE TENNESSEE

CITY           SKY/WX    TMP DP  RH WIND       PRES   REMARKS
TULLAHOMA      SUNNY     39  30  70 NE5       30.32R
WINCHESTER     SUNNY     37  34  87 N3        30.32R
SHELBYVILLE    SUNNY     39  36  87 CALM      30.34R
$$

TNZ017-018-042-046-047-031500-
NORTHEAST TENNESSEE

CITY           SKY/WX    TMP DP  RH WIND       PRES   REMARKS
TRI CITIES     CLOUDY    37  31  78 CALM      30.33R
$$

TNZ012-013-036-069-073-074-031500-
CENTRAL EAST TENNESSEE

CITY           SKY/WX    TMP DP  RH WIND       PRES   REMARKS
KNOXVILLE      CLOUDY    37  31  78 NE3       30.33R
OAK RIDGE      MOSUNNY   38  30  73 CALM      30.35S
GATLINBURG     SUNNY     28  28 100 CALM      30.34S
$$

TNZ083-085-099-031500-
SOUTHEAST TENNESSEE

CITY           SKY/WX    TMP DP  RH WIND       PRES   REMARKS
CHATTANOOGA    CLOUDY    42  33  70 NE7       30.32S
$$

SKY/WX REPORTED AS FAIR MEANS FEW OR NO CLOUDS BELOW
12 THOUSAND FEET.





USA.gov is the U.S. government's official web portal to all federal, state and local government web resources and services.